Terug naar catalogus

STARLINK-34108

ActiefCommunicatieVLEO
NORAD 65872·PAYLOAD·🇺🇸 United States

Gelanceerd Oct 3, 2025 vanaf Vandenberg Space Force Base

Loading…

Volgende Passages (komende 24 uur)

TLE

VersSource: CelesTrak SupGP

Epoch: Sep 14, 2026, 22:35 UTC

1 65872C 25223U   26257.94145833 -.00060435  00000+0 -17858-2 0  2578
2 65872  53.1577 133.3439 0001184  79.3487   5.0091 15.34417700    14

Volg STARLINK-34108 in realtime met AllMySat

Download on the App Store